Regional Weather Roundup
Issued by NWS Jackson, KY

Home | Current Version | Previous Version | Text Only | Print | Product List | Glossary On
Versions: 1 2 3 4 5 6 7 8 9 10 11 12 13 14 15 16 17 18 19 20 21 22 23 24 25 26 27 28 29 30 31 32 33 34 35 36 37 38 39 40 41 42 43 44 45 46 47 48 49 50
000
ASUS43 KJKL 270410
RWRJKL

EAST KENTUCKY HOURLY WEATHER ROUNDUP
NATIONAL WEATHER SERVICE JACKSON KY
1200 AM EDT WED MAY 27 2015

NOTE: "FAIR" INDICATES FEW OR NO CLOUDS BELOW 12,000 FEET WITH
NO SIGNIFICANT WEATHER AND/OR OBSTRUCTIONS TO VISIBILITY.

* THESE REPORTS ARE NOT UNDER NWS QUALITY CONTROL AND MAY NOT
  REPORT WEATHER SUCH AS PRECIPITATION AND FOG.

KYZ079-080-083-085-087-088-110-112-115-119-120-270500
...EASTERN KENTUCKY...

CITY           SKY/WX    TMP DP  RH WIND       PRES   REMARKS
JACKSON        MOCLDY    66  63  90 VRB6      30.13F
LONDON         MOCLDY    68  63  84 S3        30.15R
SOMERSET*      CLOUDY    66  66 100 S6        30.15R
MONTICELLO*    MOCLDY    71  69  93 S9        30.16R
MIDDLESBORO*   MOCLDY    71  65  81 S8G16     30.17S
HARLAN APT*    CLOUDY    66  64  94 CALM      30.18S
HAZARD APT*    CLEAR     68  68 100 S5        30.14F
BLACK MTN*       N/A     61  61 100 S5          N/A
PIKEVILLE APT* MOCLDY    66  64  94 S3        30.15F
BIG SANDY*     MOCLDY    69  65  88 CALM      30.14S
MOREHEAD APT*  CLOUDY    64  64 100 S8        30.12S
$$

KYZ035-036-041-042-044-050-067-078-099-270500
...CENTRAL KENTUCKY...

CITY           SKY/WX    TMP DP  RH WIND       PRES   REMARKS
MT STERLING*   MOCLDY    64  64 100 SW7       30.12R
FLEMING/MASON* CLEAR     64  64 100 S7        30.09S
DANVILLE*      MOCLDY    64  64 100 SW6       30.12R
RICHMOND*      MOCLDY    68  64  88 S7        30.11R
LEXINGTON      MOCLDY    66  65  96 S8        30.09S
FRANKFORT      MOCLDY    66  64  93 S7        30.06S
$$

KYZ091>093-OHZ055-061-077-WVZ005-015-034-035-042-270500
...SOUTHERN OHIO/WEST VIRGINIA...

CITY           SKY/WX    TMP DP  RH WIND       PRES   REMARKS
COVINGTON      CLOUDY    67  65  93 S9        30.04S
COLUMBUS       CLOUDY    68  66  93 S6        30.02F
DAYTON         CLOUDY    70  67  90 SW14      30.02S
WILMINGTON     CLOUDY    66  63  90 SW10      30.04R
HUNTINGTON     MOCLDY    66  64  93 S5        30.09F
CHARLESTON     CLOUDY    71  66  84 W14G29    30.12R
PINEVILLE*     MOCLDY    66  66 100 MISG      30.23R FOG
BECKLEY        PTCLDY    70  60  70 S10       30.21R
BLUEFIELD      MOCLDY    73  60  63 S9G20     30.25S
$$

VAZ002-007-008-TNZ017-027-036-066-071-270500
...SOUTHWEST VIRGINIA/EAST TENNESSEE...

CITY           SKY/WX    TMP DP  RH WIND       PRES   REMARKS
WISE*          CLOUDY    70  61  73 SW8       30.24S
JONESVILLE*    CLOUDY    68  68 100 CALM      30.21S
ABINGDON*      LGT RAIN  73  65  78 SW7       30.23R
BRISTOL        LGT RAIN  73  66  78 S6        30.20R
KNOXVILLE      MOCLDY    71  61  70 SW8       30.17S
OAK RIDGE      CLOUDY    70  67  90 SW3       30.20R
CROSSVILLE     CLOUDY    68  65  90 S8        30.21R
NASHVILLE      PTCLDY    70  67  90 S6        30.12R
$$

...KEY TO REMARKS...
VSB - VISIBILITY IN MILES
WCI - WIND CHILL INDEX
HX  - HEAT INDEX

$$


USA.gov is the U.S. government's official web portal to all federal, state and local government web resources and services.